Regional Weather Roundup
Issued by NWS Midland/Odessa, TX

Skip options and go directly to product.
Home | Oldest Version | Previous Version | Current Version | All | Text Only | Save Text | Print | Product List | Glossary Off

Skip product version selection by date and time.   

095
ASUS44 KMAF 190510
RWRMAF
MIDLAND AREA WEATHER ROUNDUP
NATIONAL WEATHER SERVICE MIDLAND TX
1200 AM CDT FRI SEP 19 2014

...IN SOUTHWEST TEXAS AND SOUTHEAST NEW MEXICO...

CITY           SKY/WX    TMP DP  RH WIND       PRES   REMARKS
ALPINE         MOCLDY    70  66  87 CALM      30.07F
ANDREWS        CLOUDY    69  68  96 SE12G17   30.00S
ARTESIA        NOT AVBL
BIG SPRING     CLOUDY    74  70  88 E8        30.00S
CARLSBAD       LGT RAIN  70  32  24 CALM      29.97S
DRYDEN           N/A     80  72  76 NE7       29.90F
FORT STOCKTON  CLOUDY    71  68  90 E12       29.96R
GUAD PASS      FOG       64  64 100 NE16      30.08R VSB 1/4
HOBBS          LGT RAIN  66  66 100 E12       30.02F
MARFA          MOCLDY    66  64  94 NE5       30.06F
MIDLAND AIRPK  NOT AVBL
MIDLAND INTL   CLOUDY    71  69  93 SE8       29.98R
ODESSA         CLOUDY    70  68  93 SE12      29.99R
PECOS          CLOUDY    71  68  89 E15G21    29.92F
PRESIDIO       FAIR      78  68  72 NE13G20   29.89S
SEMINOLE       CLOUDY    67  66  97 E8        30.03R
SNYDER         CLOUDY    69  67  93 E8        29.98F
WINK           CLOUDY    73  69  87 E15       29.95R
$$
...OTHER STATIONS IN TEXAS...

CITY           SKY/WX    TMP DP  RH WIND       PRES   REMARKS
ABILENE        CLOUDY    73  70  90 CALM      29.97F
AMARILLO       MOCLDY    65  61  87 S9        30.06S
AUSTIN         CLOUDY    75  74  96 CALM      29.88F
BROWNSVILLE    PTCLDY    81  78  91 SE6       29.85S
CORPUS CHRISTI PTCLDY    79  76  90 SE7       29.86R
DALLAS FTW     MOCLDY    75  68  78 SE9       29.93S
DEL RIO        CLOUDY    84  70  62 SE6       29.84S
EL PASO        LGT RAIN  67  65  93 CALM      29.98F
HOUSTON INT    CLOUDY    74  73  97 E7        29.89S
LUBBOCK        CLOUDY    67  65  93 SE6       30.02F
SAN ANGELO     CLOUDY    72  68  87 CALM      29.96R
SAN ANTONIO    LGT RAIN  76  72  87 E7        29.91F
WACO           CLOUDY    73  72  96 SE5       29.91S
WICHITA FALLS  NOT AVBL
$$
...OTHER LOCATIONS IN NEW MEXICO...

CITY           SKY/WX    TMP DP  RH WIND       PRES   REMARKS
ALAMAGORDO     LGT RAIN  64  64 100 CALM      30.02S
ALBUQUERQUE    MOCLDY    67  58  72 S6        30.08R
CANNON AFB     NOT AVBL
CLOVIS           N/A     64  63  94 SE9       30.10S
HOLLOMAN AFB   DRIZZLE   66  66 100 CALM      30.00S
ROSWELL        HVY RAIN  68  66  93 E6        30.01R FOG
RUIDOSO        CLOUDY    57  57 100 SE7       30.18S FOG
SANTA FE       PTCLDY    64  55  72 SE15      30.13R
TRUTH OR CONSE PTCLDY    65  63  93 S5        30.02S
TUCUMCARI      MOCLDY    65  61  87 S5        30.05S
$$

USA.gov is the U.S. government's official web portal to all federal, state and local government web resources and services.